Location: Gradaro
(45.0833°N, 10.8833°E)
Time: 14:55:42
(UTC+00:00)

Cosmos 1680 Rocket - Pass Details

Date: 29 November 2020
Orbit: 760 x 781 km, 74.1° (Epoch: 22 January)

Event Time Altitude Azimuth Distance (km) Brightness Sun altitude
Exits shadow 04:19:57 30° 341° (NNW) 1,382 4.6 -22.8°
Maximum altitude 04:22:42 87° 69° (ENE) 788 3.5 -22.3°
Drops below altitude 10° 04:28:00 10° 159° (SSE) 2,325 6.4 -21.4°
Sets 04:30:22 0° 160° (SSE) 3,246 7.2 -21.0°
